Flag for Brazil Weather past 2 weeks in Manaus, Amazonas, Brazil

Now
77 °F

Passing clouds.


Feels Like: 78 °F
Forecast: 72 / 90 °F
Wind: 3 mph from West

Location: Manaus Aeroporto

Current Time: Jul 30, 2014 at 8:03:37 AM

Latest Report: Jul 30, 2014 at 7:00 AM


Visibility: N/A

Pressure: 30.01 "Hg

Humidity: 89%

Dew point: 73 °F

Location of ManausLocation

Historic Weather in Manaus — Graph

°F

Manaus temperature yesterday

Maximum temperature yesterday: 88 °F (at 2:00 PM)
Minimum temperature yesterday: 73 °F (at 12:00 AM)
Average temperature yesterday: 79 °F

Past Weeks' High & Low Weather Summary

 TemperatureHumidityPressure
High91 °F (Jul 17, 2:00 PM)100% (Jul 28, 1:00 PM)30.07 "Hg (Jul 28, 1:00 PM)
Low39 °F (Jul 28, 1:00 PM)52% (Jul 20, 3:00 PM)29.83 "Hg (Jul 21, 4:00 PM)
Average80 °F80%29.95 "Hg
* Reported Jul 15 7:00 AM — Jul 30 7:00 AM, Manaus, Weather by CustomWeather, © 2014

Note: Actual official high and low records may vary slightly from our data, if they occured in-between our weather recording intervals... More about our weather records

Advertising

Manaus weather history for previous 24 hours

 ConditionsComfort  
Time TempWeatherWind HumidityBarometerVisibility
7:00 AM
Jul 30
77 °FPassing clouds.3 mph89%30.01 "HgN/A
6:00 AM77 °FPassing clouds.3 mph89%29.98 "HgN/A
5:00 AM77 °FPassing clouds.3 mph89%29.98 "HgN/A
4:00 AM77 °FClear.3 mph89%29.95 "Hg10 mi
3:00 AM77 °FClear.3 mph83%29.95 "Hg10 mi
2:00 AM77 °FClear.3 mph83%29.95 "Hg10 mi
1:00 AM77 °FClear.2 mph89%29.98 "Hg10 mi
12:00 AM77 °FClear.5 mph89%29.98 "Hg10 mi
11:00 PM
Jul 29
79 °FClear.3 mph84%29.98 "Hg10 mi
10:00 PM77 °FClear.No wind89%29.98 "Hg10 mi
9:00 PM79 °FPassing clouds.2 mph84%29.98 "HgN/A
8:00 PM79 °FPassing clouds.2 mph84%29.95 "HgN/A
7:00 PM79 °FPassing clouds.5 mph79%29.95 "HgN/A
6:00 PM77 °FScattered clouds.3 mph89%29.92 "HgN/A
5:00 PM79 °FScattered clouds.2 mph84%29.92 "HgN/A
4:00 PM79 °FScattered showers. Scattered clouds.5 mph79%29.92 "HgN/A
2:00 PM88 °FScattered clouds.6 mph62%29.92 "HgN/A
1:00 PM86 °FScattered clouds.5 mph66%29.98 "HgN/A
12:00 PM86 °FScattered clouds.3 mph66%30.01 "HgN/A
11:00 AM86 °FScattered clouds.3 mph66%30.01 "HgN/A
10:00 AM84 °FPassing clouds.5 mph66%30.04 "HgN/A
9:00 AM82 °FPassing clouds.2 mph74%30.01 "HgN/A
8:00 AM81 °FPassing clouds.2 mph79%30.01 "HgN/A
Weather by CustomWeather, © 2014

See weather overviewHow to use our weather pages